{"data":{"norad_id":64206,"intl_designator":"2025-117D","name":"STARLINK-34311","alt_names":[],"object_type":"PAYLOAD","status":"ACTIVE","operator":null,"country":"US","launch_date":"2025-05-31","launch_site_code":"AFWTR","launch_vehicle":null,"mission":null,"orbit_class":"UNKNOWN","rcs_meters":null,"size_class":null,"mass_kg":null,"dimensions":null,"purposes":["comms"],"wikipedia_slug":null,"has_3d_model":false,"image_url":null,"decayed_at":null,"tle_current":{"epoch":"2026-05-25T02:50:36.495744Z","epoch_age_seconds":62281,"freshness":"FRESH","line1":"1 64206U 25117D   26145.11847796  .00024696  00000+0  84301-3 0  9990","line2":"2 64206  53.1601  44.8584 0001086  73.8107 286.3013 15.30206576 56256","mean_motion":15.30206576,"eccentricity":0.0001086,"inclination_deg":53.1601,"raan_deg":44.8584,"arg_perigee_deg":73.8107,"mean_anomaly_deg":286.3013,"bstar":0.00084301,"rev_number":5625,"period_min":94.10494129258,"perigee_km":474.45116283656,"apogee_km":475.93970664138,"semimajor_km":6853.332434739,"source":"CELESTRAK","updated_at":"2026-05-25T13:38:20.316722Z"}}}